JBU640 KCLE-KBOS

Flight info

Callsign JBU640
Flight time 1h 14m
Altitude 31000
Route PFLYD1 JASEE JHW Q82 PONCT JFUND2
Aircraft A20N/M-SDE2E3FGHIRWXY/LB1

Departure

Time 2026-05-07 13:37
Airport Cleveland Hopkins International Airport (KCLE)

Arrival

Time 2026-05-07 14:51
Airport Boston Logan International Airport (KBOS)
Time Latitude Longitude Altitude Speed Heading
2026-05-07 13:22 41.40881 -81.83946 795 ft 0 kts 323°
2026-05-07 13:26 41.40873 -81.83938 795 ft 2 kts 319°
2026-05-07 13:27 41.40861 -81.83924 795 ft 2 kts 315°
2026-05-07 13:27 41.40850 -81.83907 795 ft 2 kts 304°
2026-05-07 13:27 41.40843 -81.83887 796 ft 2 kts 268°
2026-05-07 13:27 41.40845 -81.83872 796 ft 0 kts 254°
2026-05-07 13:30 41.40844 -81.83878 796 ft 2 kts 253°
2026-05-07 13:30 41.40843 -81.83880 796 ft 0 kts 253°
2026-05-07 13:30 41.40842 -81.83884 796 ft 0 kts 252°
2026-05-07 13:31 41.40839 -81.83896 796 ft 2 kts 249°
2026-05-07 13:31 41.40819 -81.83931 796 ft 7 kts 219°
2026-05-07 13:31 41.40769 -81.83968 796 ft 9 kts 208°
2026-05-07 13:31 41.40729 -81.83998 796 ft 11 kts 208°
2026-05-07 13:32 41.40657 -81.84056 796 ft 13 kts 212°
2026-05-07 13:32 41.40602 -81.84159 797 ft 15 kts 251°
2026-05-07 13:32 41.40572 -81.84302 797 ft 16 kts 264°
2026-05-07 13:32 41.40624 -81.84413 796 ft 13 kts 320°
2026-05-07 13:33 41.40685 -81.84431 795 ft 14 kts 359°
2026-05-07 13:33 41.40796 -81.84435 794 ft 18 kts 358°
2026-05-07 13:33 41.40906 -81.84401 795 ft 16 kts 39°
2026-05-07 13:33 41.41014 -81.84380 795 ft 17 kts 360°
2026-05-07 13:34 41.41145 -81.84385 793 ft 19 kts 359°
2026-05-07 13:34 41.41310 -81.84328 792 ft 14 kts 48°
2026-05-07 13:34 41.41375 -81.84226 791 ft 15 kts 49°
2026-05-07 13:35 41.41426 -81.84154 793 ft 9 kts 41°
2026-05-07 13:35 41.41483 -81.84167 793 ft 10 kts 317°
2026-05-07 13:35 41.41506 -81.84242 792 ft 8 kts 269°
2026-05-07 13:35 41.41494 -81.84275 791 ft 0 kts 230°
2026-05-07 13:36 41.41493 -81.84276 791 ft 5 kts 229°
2026-05-07 13:36 41.41253 -81.84653 792 ft 99 kts 230°
2026-05-07 13:37 41.40639 -81.85606 855 ft 163 kts 229°
2026-05-07 13:37 41.39827 -81.86850 1361 ft 191 kts 229°
2026-05-07 13:37 41.39019 -81.88234 2618 ft 189 kts 245°
2026-05-07 13:37 41.38722 -81.89955 3472 ft 200 kts 274°
2026-05-07 13:38 41.38975 -81.91866 4207 ft 219 kts 281°
2026-05-07 13:38 41.39291 -81.93901 5004 ft 231 kts 281°
2026-05-07 13:38 41.39602 -81.96071 5801 ft 246 kts 279°
2026-05-07 13:38 41.39908 -81.98360 6581 ft 252 kts 279°
2026-05-07 13:39 41.40209 -82.00672 7348 ft 254 kts 279°
2026-05-07 13:39 41.40506 -82.02991 8148 ft 255 kts 278°
2026-05-07 13:39 41.40798 -82.05296 8931 ft 256 kts 278°
2026-05-07 13:39 41.41094 -82.07637 9746 ft 257 kts 278°
2026-05-07 13:40 41.41401 -82.10003 10501 ft 263 kts 281°
2026-05-07 13:40 41.42086 -82.12321 11266 ft 277 kts 298°
2026-05-07 13:40 41.43383 -82.14300 12032 ft 294 kts 317°
2026-05-07 13:40 41.45287 -82.15605 12474 ft 326 kts 339°
2026-05-07 13:41 41.47623 -82.15808 13224 ft 349 kts
2026-05-07 13:41 41.49996 -82.14828 13803 ft 367 kts 21°
2026-05-07 13:41 41.52078 -82.12761 13968 ft 380 kts 43°
2026-05-07 13:41 41.53640 -82.09877 14011 ft 387 kts 56°
2026-05-07 13:42 41.54999 -82.06780 13996 ft 387 kts 56°
2026-05-07 13:42 41.56430 -82.03730 14103 ft 388 kts 53°
2026-05-07 13:42 41.57984 -82.00761 14791 ft 390 kts 50°
2026-05-07 13:42 41.59615 -81.97850 15608 ft 393 kts 48°
2026-05-07 13:43 41.61210 -81.94837 16337 ft 402 kts 58°
2026-05-07 13:43 41.62274 -81.91334 17070 ft 413 kts 74°
2026-05-07 13:43 41.62667 -81.87501 17787 ft 420 kts 85°
2026-05-07 13:43 41.62883 -81.83627 18454 ft 425 kts 85°
2026-05-07 13:44 41.63101 -81.79661 19014 ft 432 kts 86°
2026-05-07 13:44 41.63327 -81.75618 19577 ft 439 kts 86°
2026-05-07 13:44 41.63554 -81.71601 20132 ft 446 kts 86°
2026-05-07 13:44 41.63790 -81.67438 20691 ft 452 kts 86°
2026-05-07 13:45 41.64029 -81.63213 21246 ft 459 kts 87°
2026-05-07 13:45 41.64268 -81.58934 21792 ft 465 kts 87°
2026-05-07 13:45 41.64532 -81.54583 22328 ft 472 kts 84°
2026-05-07 13:45 41.65175 -81.50255 22861 ft 479 kts 73°
2026-05-07 13:46 41.66169 -81.45970 23385 ft 486 kts 72°
2026-05-07 13:46 41.67180 -81.41628 23857 ft 492 kts 72°
2026-05-07 13:46 41.68160 -81.37389 24320 ft 496 kts 72°
2026-05-07 13:46 41.69180 -81.32951 24778 ft 501 kts 72°
2026-05-07 13:47 41.70195 -81.28520 25226 ft 506 kts 72°
2026-05-07 13:47 41.71229 -81.24001 25661 ft 511 kts 72°
2026-05-07 13:47 41.72272 -81.19427 26093 ft 516 kts 72°
2026-05-07 13:47 41.73326 -81.14797 26522 ft 521 kts 73°
2026-05-07 13:48 41.74384 -81.10144 26949 ft 525 kts 73°
2026-05-07 13:48 41.75451 -81.05436 27343 ft 530 kts 73°
2026-05-07 13:48 41.76525 -81.00691 27731 ft 535 kts 73°
2026-05-07 13:48 41.77607 -80.95907 28121 ft 539 kts 73°
2026-05-07 13:49 41.78711 -80.91077 28498 ft 543 kts 73°
2026-05-07 13:49 41.79824 -80.86220 28862 ft 547 kts 73°
2026-05-07 13:49 41.80944 -80.81319 29223 ft 551 kts 73°
2026-05-07 13:49 41.81877 -80.77224 29507 ft 555 kts 73°
2026-05-07 13:50 41.83008 -80.72247 29848 ft 559 kts 73°
2026-05-07 13:50 41.84139 -80.67255 30171 ft 563 kts 73°
2026-05-07 13:50 41.85279 -80.62213 30484 ft 566 kts 73°
2026-05-07 13:50 41.86409 -80.57211 30790 ft 569 kts 73°
2026-05-07 13:51 41.87577 -80.52126 30949 ft 571 kts 72°
2026-05-07 13:51 41.89932 -80.41946 30980 ft 570 kts 72°
2026-05-07 13:52 41.91965 -80.33099 30981 ft 571 kts 73°
2026-05-07 13:52 41.94357 -80.22617 30983 ft 571 kts 73°
2026-05-07 13:53 41.96676 -80.12401 30985 ft 572 kts 73°
2026-05-07 13:53 41.98988 -80.02170 30981 ft 572 kts 73°
2026-05-07 13:54 42.01290 -79.91934 30981 ft 573 kts 73°
2026-05-07 13:54 42.03574 -79.81730 30988 ft 573 kts 73°
2026-05-07 13:55 42.05863 -79.71457 30995 ft 573 kts 73°
2026-05-07 13:55 42.08148 -79.61154 30989 ft 574 kts 73°
2026-05-07 13:56 42.10420 -79.50861 30978 ft 574 kts 73°
2026-05-07 13:56 42.12687 -79.40542 30973 ft 574 kts 73°
2026-05-07 13:57 42.14930 -79.30281 30971 ft 574 kts 73°
2026-05-07 13:57 42.17175 -79.19963 30968 ft 575 kts 73°
2026-05-07 13:58 42.19203 -79.09551 30968 ft 574 kts 82°
2026-05-07 13:58 42.20552 -78.98933 30969 ft 574 kts 82°
2026-05-07 13:59 42.21911 -78.88375 30973 ft 575 kts 82°
2026-05-07 13:59 42.23265 -78.77712 30971 ft 576 kts 82°
2026-05-07 14:00 42.24604 -78.67058 30974 ft 577 kts 82°
2026-05-07 14:00 42.25939 -78.56349 30981 ft 577 kts 82°
2026-05-07 14:01 42.27256 -78.45699 30978 ft 578 kts 82°
2026-05-07 14:01 42.28572 -78.34966 30982 ft 578 kts 82°
2026-05-07 14:02 42.29872 -78.24286 30976 ft 569 kts 82°
2026-05-07 14:02 42.31123 -78.13925 30956 ft 574 kts 83°
2026-05-07 14:03 42.32410 -78.03173 30972 ft 578 kts 83°
2026-05-07 14:03 42.33346 -77.95309 30973 ft 578 kts 83°
2026-05-07 14:04 42.34188 -77.88191 30976 ft 580 kts 83°
2026-05-07 14:04 42.35454 -77.77421 30985 ft 579 kts 83°
2026-05-07 14:05 42.36708 -77.66649 30994 ft 580 kts 83°
2026-05-07 14:05 42.37954 -77.55860 31001 ft 580 kts 83°
2026-05-07 14:06 42.39190 -77.45068 30995 ft 581 kts 83°
2026-05-07 14:06 42.40418 -77.34255 30990 ft 581 kts 84°
2026-05-07 14:07 42.41635 -77.23439 30983 ft 581 kts 84°
2026-05-07 14:07 42.42831 -77.12719 30978 ft 582 kts 84°
2026-05-07 14:08 42.44032 -77.01870 30973 ft 582 kts 84°
2026-05-07 14:08 42.45200 -76.91169 30978 ft 582 kts 84°
2026-05-07 14:09 42.46372 -76.80310 30986 ft 583 kts 84°
2026-05-07 14:09 42.47543 -76.69416 30979 ft 584 kts 84°
2026-05-07 14:10 42.48709 -76.58518 30979 ft 585 kts 84°
2026-05-07 14:10 42.49858 -76.47684 30982 ft 585 kts 84°
2026-05-07 14:11 42.51006 -76.36750 30986 ft 586 kts 85°
2026-05-07 14:11 42.52145 -76.25799 30982 ft 586 kts 85°
2026-05-07 14:12 42.53268 -76.14833 30987 ft 587 kts 85°
2026-05-07 14:12 42.54381 -76.03852 30985 ft 588 kts 85°
2026-05-07 14:13 42.55461 -75.93113 30978 ft 588 kts 85°
2026-05-07 14:13 42.56555 -75.82120 30975 ft 588 kts 85°
2026-05-07 14:14 42.57639 -75.71119 30969 ft 588 kts 85°
2026-05-07 14:14 42.58714 -75.60110 30962 ft 587 kts 85°
2026-05-07 14:15 42.59776 -75.49175 30954 ft 588 kts 85°
2026-05-07 14:15 42.60832 -75.38177 30950 ft 588 kts 85°
2026-05-07 14:16 42.61879 -75.27150 30962 ft 588 kts 86°
2026-05-07 14:16 42.62916 -75.16114 30962 ft 589 kts 86°
2026-05-07 14:17 42.63908 -75.05440 30967 ft 589 kts 86°
2026-05-07 14:17 42.64926 -74.94369 30960 ft 590 kts 86°
2026-05-07 14:18 42.65935 -74.83279 30966 ft 591 kts 86°
2026-05-07 14:18 42.66766 -74.74054 30970 ft 592 kts 86°
2026-05-07 14:19 42.67750 -74.63019 30967 ft 592 kts 86°
2026-05-07 14:19 42.68500 -74.54513 30964 ft 592 kts 86°
2026-05-07 14:20 42.69474 -74.43375 30959 ft 593 kts 86°
2026-05-07 14:20 42.70438 -74.32231 30956 ft 593 kts 86°
2026-05-07 14:21 42.71392 -74.21061 30957 ft 594 kts 86°
2026-05-07 14:21 42.72325 -74.10015 30948 ft 595 kts 87°
2026-05-07 14:22 42.73380 -73.97358 30712 ft 597 kts 87°
2026-05-07 14:22 42.73689 -73.93622 30503 ft 596 kts 87°
2026-05-07 14:22 42.74149 -73.88044 30196 ft 592 kts 87°
2026-05-07 14:22 42.74585 -73.82484 29853 ft 588 kts 90°
2026-05-07 14:23 42.74660 -73.76977 29482 ft 579 kts 96°
2026-05-07 14:23 42.74612 -73.71525 29112 ft 574 kts 96°
2026-05-07 14:23 42.74581 -73.66101 28750 ft 569 kts 96°
2026-05-07 14:23 42.74551 -73.60739 28387 ft 564 kts 96°
2026-05-07 14:24 42.74515 -73.55413 28031 ft 559 kts 96°
2026-05-07 14:24 42.74474 -73.50150 27682 ft 555 kts 96°
2026-05-07 14:24 42.74430 -73.44979 27325 ft 550 kts 96°
2026-05-07 14:24 42.74383 -73.39797 27000 ft 544 kts 96°
2026-05-07 14:25 42.74334 -73.34678 26759 ft 538 kts 96°
2026-05-07 14:25 42.74282 -73.29576 26550 ft 537 kts 96°
2026-05-07 14:25 42.74227 -73.24511 26336 ft 533 kts 96°
2026-05-07 14:25 42.74171 -73.19475 26140 ft 531 kts 96°
2026-05-07 14:26 42.74112 -73.14447 25936 ft 529 kts 96°
2026-05-07 14:26 42.73883 -73.09778 25741 ft 518 kts 104°
2026-05-07 14:26 42.73348 -73.05181 25560 ft 514 kts 105°
2026-05-07 14:26 42.72792 -73.00391 25358 ft 511 kts 105°
2026-05-07 14:27 42.72243 -72.95623 25157 ft 509 kts 105°
2026-05-07 14:27 42.71696 -72.90883 24961 ft 506 kts 105°
2026-05-07 14:27 42.71148 -72.86159 24763 ft 503 kts 105°
2026-05-07 14:27 42.70603 -72.81484 24562 ft 499 kts 105°
2026-05-07 14:28 42.70056 -72.76831 24371 ft 496 kts 105°
2026-05-07 14:28 42.69517 -72.72266 24183 ft 494 kts 104°
2026-05-07 14:28 42.68973 -72.67665 23989 ft 490 kts 104°
2026-05-07 14:28 42.68431 -72.63112 23894 ft 487 kts 104°
2026-05-07 14:29 42.67890 -72.58594 23876 ft 480 kts 104°
2026-05-07 14:29 42.67365 -72.54252 23659 ft 471 kts 105°
2026-05-07 14:29 42.66830 -72.49875 23219 ft 466 kts 104°
2026-05-07 14:29 42.66301 -72.45554 22666 ft 462 kts 104°
2026-05-07 14:30 42.65776 -72.41270 22168 ft 456 kts 104°
2026-05-07 14:30 42.65254 -72.37026 21632 ft 451 kts 105°
2026-05-07 14:30 42.64740 -72.32848 21137 ft 446 kts 105°
2026-05-07 14:30 42.64239 -72.28726 20877 ft 441 kts 104°
2026-05-07 14:31 42.63764 -72.24655 20701 ft 442 kts 104°
2026-05-07 14:31 42.63290 -72.20540 20441 ft 440 kts 104°
2026-05-07 14:31 42.62820 -72.16456 20063 ft 436 kts 104°
2026-05-07 14:31 42.62354 -72.12438 19596 ft 431 kts 104°
2026-05-07 14:32 42.61887 -72.08437 19129 ft 427 kts 104°
2026-05-07 14:32 42.61498 -72.05127 18743 ft 423 kts 104°
2026-05-07 14:32 42.61019 -72.01099 18264 ft 418 kts 105°
2026-05-07 14:32 42.60543 -71.97229 17765 ft 414 kts 105°
2026-05-07 14:33 42.60064 -71.93389 17193 ft 411 kts 105°
2026-05-07 14:33 42.59586 -71.89578 16571 ft 411 kts 105°
2026-05-07 14:33 42.59105 -71.85749 15918 ft 412 kts 105°
2026-05-07 14:33 42.58627 -71.81933 15403 ft 408 kts 105°
2026-05-07 14:34 42.58104 -71.78164 14750 ft 402 kts 108°
2026-05-07 14:34 42.57513 -71.74467 13953 ft 400 kts 109°
2026-05-07 14:34 42.56915 -71.70832 13513 ft 387 kts 109°
2026-05-07 14:34 42.56343 -71.67326 12996 ft 376 kts 109°
2026-05-07 14:35 42.55786 -71.63893 12568 ft 370 kts 108°
2026-05-07 14:35 42.55228 -71.60461 12150 ft 374 kts 108°
2026-05-07 14:35 42.54585 -71.57090 11802 ft 365 kts 112°
2026-05-07 14:35 42.53914 -71.53868 11630 ft 352 kts 111°
2026-05-07 14:36 42.53260 -71.50694 11308 ft 340 kts 111°
2026-05-07 14:36 42.52635 -71.47672 10922 ft 331 kts 111°
2026-05-07 14:36 42.52004 -71.44647 10695 ft 337 kts 111°
2026-05-07 14:36 42.51367 -71.41605 10425 ft 335 kts 111°
2026-05-07 14:37 42.50737 -71.38586 10157 ft 331 kts 110°
2026-05-07 14:37 42.49500 -71.32566 9617 ft 329 kts 109°
2026-05-07 14:37 42.48951 -71.29785 9364 ft 324 kts 109°
2026-05-07 14:38 42.48366 -71.26831 9096 ft 324 kts 109°
2026-05-07 14:38 42.47792 -71.23932 8983 ft 314 kts 109°
2026-05-07 14:38 42.47236 -71.21131 8849 ft 299 kts 109°
2026-05-07 14:38 42.46742 -71.18646 8651 ft 285 kts 109°
2026-05-07 14:39 42.46235 -71.16113 8216 ft 279 kts 108°
2026-05-07 14:39 42.45938 -71.13542 7919 ft 273 kts 99°
2026-05-07 14:39 42.45709 -71.10940 7704 ft 279 kts 99°
2026-05-07 14:39 42.45473 -71.08353 7480 ft 274 kts 99°
2026-05-07 14:40 42.45235 -71.05794 7260 ft 274 kts 99°
2026-05-07 14:40 42.44908 -71.03280 7042 ft 268 kts 112°
2026-05-07 14:40 42.44028 -71.01114 6856 ft 260 kts 134°
2026-05-07 14:40 42.42897 -70.99254 6660 ft 259 kts 134°
2026-05-07 14:41 42.41760 -70.97363 6489 ft 258 kts 133°
2026-05-07 14:41 42.40634 -70.95476 6301 ft 257 kts 133°
2026-05-07 14:41 42.39523 -70.93610 6050 ft 257 kts 133°
2026-05-07 14:41 42.38409 -70.91740 5711 ft 254 kts 132°
2026-05-07 14:42 42.37299 -70.89876 5374 ft 253 kts 131°
2026-05-07 14:42 42.36198 -70.88033 5041 ft 251 kts 131°
2026-05-07 14:42 42.35103 -70.86200 4714 ft 248 kts 130°
2026-05-07 14:42 42.34037 -70.84413 4366 ft 240 kts 130°
2026-05-07 14:43 42.32924 -70.82788 4022 ft 233 kts 137°
2026-05-07 14:43 42.32086 -70.81687 3784 ft 237 kts 137°
2026-05-07 14:43 42.30941 -70.80174 3467 ft 236 kts 136°
2026-05-07 14:43 42.29770 -70.78617 3143 ft 236 kts 136°
2026-05-07 14:44 42.28617 -70.77082 3001 ft 229 kts 136°
2026-05-07 14:44 42.27482 -70.75572 2988 ft 233 kts 136°
2026-05-07 14:44 42.26265 -70.74143 2986 ft 231 kts 153°
2026-05-07 14:44 42.24742 -70.73619 2990 ft 226 kts 187°
2026-05-07 14:45 42.23290 -70.74288 2994 ft 216 kts 221°
2026-05-07 14:45 42.22423 -70.75876 2995 ft 210 kts 256°
2026-05-07 14:45 42.22391 -70.77783 2995 ft 202 kts 286°
2026-05-07 14:45 42.22848 -70.79476 3001 ft 187 kts 295°
2026-05-07 14:46 42.23363 -70.80995 2991 ft 165 kts 295°
2026-05-07 14:46 42.23788 -70.82343 2992 ft 149 kts 292°
2026-05-07 14:46 42.24167 -70.83579 2991 ft 142 kts 298°
2026-05-07 14:46 42.24716 -70.84665 2978 ft 137 kts 309°
2026-05-07 14:47 42.25347 -70.85607 2825 ft 132 kts 314°
2026-05-07 14:47 42.25998 -70.86476 2662 ft 130 kts 314°
2026-05-07 14:47 42.26634 -70.87330 2495 ft 129 kts 314°
2026-05-07 14:47 42.27291 -70.88193 2346 ft 136 kts 314°
2026-05-07 14:48 42.27953 -70.89103 2142 ft 137 kts 314°
2026-05-07 14:48 42.28612 -70.89975 1964 ft 131 kts 314°
2026-05-07 14:48 42.29254 -70.90836 1791 ft 128 kts 314°
2026-05-07 14:48 42.29887 -70.91683 1625 ft 130 kts 313°
2026-05-07 14:49 42.30525 -70.92544 1448 ft 129 kts 313°
2026-05-07 14:49 42.31148 -70.93374 1263 ft 124 kts 315°
2026-05-07 14:49 42.31788 -70.94232 1099 ft 134 kts 314°
2026-05-07 14:49 42.32425 -70.95086 914 ft 123 kts 314°
2026-05-07 14:50 42.32992 -70.95845 744 ft 113 kts 314°
2026-05-07 14:50 42.33557 -70.96605 587 ft 117 kts 314°
2026-05-07 14:50 42.34122 -70.97363 435 ft 116 kts 314°
2026-05-07 14:50 42.34705 -70.98145 281 ft 120 kts 315°
2026-05-07 14:51 42.35294 -70.98937 121 ft 116 kts 314°
2026-05-07 14:51 42.35856 -70.99692 35 ft 109 kts 314°
2026-05-07 14:51 42.36287 -71.00274 25 ft 59 kts 315°
2026-05-07 14:51 42.36539 -71.00603 26 ft 47 kts 317°
2026-05-07 14:52 42.36758 -71.00896 28 ft 42 kts 314°
2026-05-07 14:52 42.36905 -71.01093 25 ft 19 kts 310°
2026-05-07 14:52 42.36919 -71.01205 28 ft 8 kts 238°
2026-05-07 14:52 42.36911 -71.01220 26 ft 4 kts 236°
2026-05-07 14:53 42.36887 -71.01268 26 ft 8 kts 234°
2026-05-07 14:53 42.36825 -71.01298 26 ft 12 kts 175°
2026-05-07 14:53 42.36742 -71.01236 25 ft 13 kts 147°
2026-05-07 14:53 42.36709 -71.01293 28 ft 9 kts 289°
2026-05-07 14:54 42.36742 -71.01367 25 ft 9 kts 299°
2026-05-07 14:54 42.36751 -71.01393 28 ft 0 kts 295°